www.pogodaiklimat.ru

Погода и климат >> Архив погоды >> Италия >> Джела


ПОГОДА в Джеле

  • Прогноз погоды в Джеле
  • Монитор погоды в Джеле

АРХИВ ПОГОДЫ в Джеле

Время (UTC), дата Ветер
(напр.,м/с)
 
Видим.   Явления Облачность Т
(С)
Тd
(С)
f
(%)
Тe
(С)
Тes
(С)
Комфортность P
(гПа)
Po
(гПа)
Тmin
(С)
Tmax
(С)
R
(мм)
R24
(мм)
S
(см)
06 14.07 нст 1 10 км ясно +24.4 +16.9 63 +28 +32 душно 1007.9 1000.0 +23.0
09 14.07 ЮЗ 3 10 км ясно +25.0 +18.4 67 +30 +43 душно 1007.9 1000.0
12 14.07 З 4 4000 м дымка 5/0
[Ac trans Ci fib]
+26.0 +20.6 72 +32 +42 очень
душно
1007.9 1000.0
15 14.07 нст 4 4000 м дымка 6/0 2000 м
[Ac trans Ci fib]
+26.0 +20.3 71 +32 +37 очень
душно
1007.9 1000.0
18 14.07 ЮЗ 3 10 км ясно +26.0 +20.8 73 +33 +33 очень
душно
1007.9 1000.0 +28.0
06 15.07 СВ 2 10 км 1/0
[Ac und]
+26.4 +20.7 71 +33 +37 очень
душно
1005.8 997.9 +24.8
09 15.07 З 3 10 км 1/1 700 м
[Sc]
+27.8 +20.1 63 +34 +46 очень
душно
1005.9 998.0
12 15.07 нст 5 10 км 3/1 660 м
[Cu med, cong Ac und]
+27.2 +21.9 73 +35 +44 очень
душно
1005.4 997.5
15 15.07 нст 4 10 км 6/6 660 м
[Cu med, cong]
+26.6 +21.6 74 +34 +36 очень
душно
1005.0 997.2
18 15.07 З 7 10 км 4/4 660 м
[Cu Sc]
+25.2 +20.7 76 +31 +31 очень
душно
1004.9 997.0 +28.4
06 16.07 З 5 10 км ясно +24.2 +19.7 76 +29 +32 душно 1005.6 997.7 +23.8
09 16.07 З 8 10 км 5/5 660 м
[Cu med, cong]
+25.0 +18.2 66 +29 +31 душно 1005.2 997.3
12 16.07 З 9 10 км 5/3 600 м
[Cu med, cong Ac und]
+25.0 +18.7 68 +30 +31 душно 1004.9 997.0
15 16.07 СВ 5 10 км 5/5 720 м
[Sc]
+29.2 +12.6 36 +30 +33 жарко 1005.0 997.2
18 16.07 С 6 10 км 4/4 720 м
[Sc diur, vesp]
+28.2 +14.8 44 +31 +31 душно 1007.4 999.5 +30.0
06 17.07 нст 1 10 км ясно +24.4 +16.7 62 +28 +32 душно 1011.8 1003.9 +23.0
09 17.07 нст 3 10 км 4/4 1200 м
[Cu med, cong]
+28.4 +14.3 42 +31 +39 душно 1011.9 1004.0
12 17.07 З 6 10 км 3/3 1200 м
[Cu med, cong]
+26.0 +20.1 70 +32 +37 очень
душно
1011.8 1003.9
15 17.07 З 8 10 км 3/3 1200 м
[Cu med, cong]
+26.0 +20.1 70 +32 +33 очень
душно
1011.1 1003.2
18 17.07 З 8 10 км 3/3 1500 м
[Cu med, cong]
+26.0 +17.9 61 +30 +30 душно 1011.2 1003.3 +28.6
06 18.07 СВ 2 10 км ясно +24.6 +17.1 63 +28 +32 душно 1011.5 1003.6 +23.6
09 18.07 ЮЗ 3 10 км 1/1 1500 м
[Cu hum]
+25.6 +16.5 57 +29 +41 душно 1012.3 1004.3
12 18.07 ЮЗ 4 10 км ясно +25.6 +19.3 68 +31 +44 очень
душно
1012.2 1004.3
15 18.07 нст 4 20 км 1/0 2000 м
[Ac trans]
+25.8 +19.4 68 +31 +36 очень
душно
1011.9 1003.9
18 18.07 З 6 20 км 1/0
[Ac trans]
+25.0 +19.6 72 +30 +30 душно 1012.3 1004.3 +26.2
06 19.07 нст 1 20 км ясно +24.2 +14.9 56 +27 +31 жарко 1014.6 1006.6 +23.4
09 19.07 ЮЗ 4 20 км ясно +25.4 +16.5 58 +29 +40 душно 1015.2 1007.3
12 19.07 ЮЗ 4 20 км ясно +26.0 +19.4 67 +31 +46 очень
душно
1015.0 1007.1
15 19.07 З 5 20 км ясно +26.2 +20.8 72 +33 +37 очень
душно
1014.4 1006.5
18 19.07 ЮЗ 4 10 км ясно +24.6 +21.1 81 +31 +31 очень
душно
1015.1 1007.1 +26.4
06 20.07 нст 1 4000 м дымка ясно +24.0 +18.9 73 +29 +33 душно 1017.2 1009.2 +23.0
09 20.07 нст 3 4000 м дымка ?/0
[]
+25.2 +19.4 70 +30 +45 душно 1017.9 1009.9
12 20.07 ЮЗ 4 4000 м дымка ясно +25.6 +20.2 72 +32 +44 очень
душно
1018.0 1010.0
15 20.07 ЮЗ 4 10 км ясно +25.2 +19.6 71 +31 +36 очень
душно
1018.1 1010.1
18 20.07 З 3 10 км ясно +25.0 +20.3 75 +31 +31 очень
душно
1018.2 1010.2 +26.4

 

Местоположение метеостанции Джела (Италия): широта 37.08 долгота 14.22 высота над уровнем моря 65 м.

В архиве по умолчанию представлена погода в Джеле за последнюю неделю. Архивные данные за месяц целиком и за предыдущие месяцы, начиная с января 2011 года, Вы можете получить, выбрав интересующий диапазон дат из раскрывающегося списка и нажав кнопку "Ввод!".


*Определитесь, кто Вы:
робот инопланетянин человек

Внимание! Время в таблицах - всемирное. Для получения местного времени необходимо прибавить поправку, которая равна 1 ч.

Смотрите также архив погоды в соседних городах и на ближайших метеорологических станциях:

Погода в Энне (Италия) (55 км)
Погода в Катании (Италия) (71 км)
Погода в Аэропорту Фонтанаросса (Италия) (85 км)
Погода в Коццо Спадаро (Италия) (92 км)
Погода в Сиракузах (Италия) (94 км)
Погода в Прицци (Италия) (100 км)
Погода в Джибилманне (Италия) (102 км)
Погода в Аэропорту Мальты (Мальта) (139 км)
Погода в Мессине (Италия) (171 км)
Погода на Острове Салина (Италия) (176 км)

Пояснения к столбцам:

Ветер - указаны скорость ветра в м/с - средняя за 10 мин, порывы в срок и между сроками (в фигурных скобках) и направление, откуда дует ветер: С - северный, СВ - северо-восточный, В - восточный, ЮВ - юго-восточный, Ю - южный, ЮЗ - юго-западный, З - западный, СЗ - северо-западный.
Видимость - горизонтальная дальность видимости в метрах или километрах. При видимости от 1 до 10 км при отсутствии осадков обычно наблюдается дымка, при ухудшении видимости до 1 км и менее - туман. В сухую погоду видимость может ухудшаться дымом, пылью или мглою.
Явления - указаны атмосферные явления, наблюдавшиеся в срок или в последний час перед сроком; фигурными скобками обозначены явления, наблюдавшиеся между сроками (за 1-3 часа до срока); квадратными скобками обозначены град или гололедные отложения с указанием их диаметра в мм.
Облачность - указаны через наклонную черту общая и нижняя облачность в баллах и высота нижней границы облаков в метрах; квадратными скобками обозначены формы облаков: Ci - перистые, Cs - перисто-слоистые, Cc - перисто-кучевые, Ac - высококучевые, As - высокослоистые, Sc - слоисто-кучевые, Ns - слоисто-дождевые, Cu - кучевые, Cb - кучево-дождевые. Подробнее классификацию облаков см. в Атласе облаков (PDF).
T - Температура воздуха - температура, измеренная на высоте 2 м над землей.
Td - Температура точки росы - температура, при понижении до которой содержащийся в воздухе водяной пар достигнет насыщения.
f - Относительная влажность воздуха - влажноcть воздуха, измеренная на высоте 2 м над землей.
Te - Эффективная температура - температура, которую ощущает одетый по сезону человек в тени. Характеристика душности погоды. При расчете учитывается влияние влажности воздуха и скорости ветра на теплоощущения человека.
Tes - Эффективная температура на солнце - температура, которую ощущает человек, с поправкой на солнечный нагрев. Характеристика знойности погоды. Зависит от высоты солнца над горизонтом, облачности и скорости ветра. Ночью, в пасмурную погоду, а также при ветре 12 м/с и более поправка равна нулю.
P - Атмосферное давление - приведенное к уровню моря атмосферное давление.
Po - Атмосферное давление - измеренное на уровне метеостанции атмосферное давление.
Tmin - Минимальная температура - минимум температуры воздуха на высоте 2 м над землей.
Tmax - Максимальная температура - максимум температуры воздуха на высоте 2 м над землей.
R - Количество осадков - Количество выпавших осадков за период времени, мм. При наведении курсора мыши на число - период времени, за который выпало указанное количество осадков.
R24 - Количество осадков - Количество выпавших осадков за 24 часа, мм.
S - Снежный покров - Высота снежного покрова, см. При наведении курсора мыши на число - состояние снежного покрова и степень покрытия местности в баллах.